05-04-2022, 00:00:04,    245,    1.2,    9.3,   0.00,   0.00, 1008.1,   77.8, -999.0
05-04-2022, 00:00:14,    245,    0.2,    9.3,   0.00,   0.00, 1008.0,   77.8, -999.0
05-04-2022, 00:00:24,    245,    0.0,    9.3,   0.00,   0.00, 1008.0,   77.4, -999.0
05-04-2022, 00:00:34,    280,    0.3,    9.4,   0.00,   0.00, 1008.0,   77.6, -999.0
05-04-2022, 00:00:44,    246,    0.5,    9.3,   0.00,   0.00, 1008.1,   77.8, -999.0
05-04-2022, 00:00:54,    287,    0.8,    9.4,   0.00,   0.00, 1008.1,   77.8, -999.0
05-04-2022, 00:01:04,    284,    0.6,    9.4,   0.00,   0.00, 1008.1,   77.7, -999.0
05-04-2022, 00:01:14,    266,    0.5,    9.4,   0.00,   0.00, 1008.1,   77.8, -999.0
05-04-2022, 00:01:24,    285,    1.2,    9.3,   0.00,   0.00, 1008.0,   77.6, -999.0
05-04-2022, 00:01:34,    285,    2.6,    9.4,   0.00,   0.00, 1008.1,   77.7, -999.0
05-04-2022, 00:01:44,    269,    3.6,    9.4,   0.00,   0.00, 1008.0,   77.7, -999.0
05-04-2022, 00:01:54,    257,    2.6,    9.4,   0.00,   0.00, 1008.1,   77.7, -999.0
05-04-2022, 00:02:03,    260,    2.3,    9.4,   0.00,   0.00, 1008.1,   77.6, -999.0
05-04-2022, 00:02:14,    302,    1.5,    9.4,   0.00,   0.00, 1008.1,   77.7, -999.0
05-04-2022, 00:02:24,    240,    1.7,    9.4,   0.00,   0.00, 1008.0,   77.7, -999.0
05-04-2022, 00:02:33,    233,    0.7,    9.3,   0.00,   0.00, 1008.0,   77.5, -999.0
05-04-2022, 00:02:43,    243,    0.4,    9.2,   0.00,   0.00, 1008.0,   77.4, -999.0
05-04-2022, 00:02:54,    268,    1.0,    9.3,   0.00,   0.00, 1008.1,   77.6, -999.0
05-04-2022, 00:03:03,    260,    2.4,    9.4,   0.00,   0.00, 1008.1,   77.7, -999.0
05-04-2022, 00:03:13,    276,    3.3,    9.4,   0.00,   0.00, 1008.1,   77.7, -999.0
05-04-2022, 00:03:23,    270,    2.3,    9.4,   0.00,   0.00, 1008.1,   77.6, -999.0
05-04-2022, 00:03:33,    294,    4.1,    9.4,   0.00,   0.00, 1008.0,   77.7, -999.0
05-04-2022, 00:03:43,    268,    2.9,    9.3,   0.00,   0.00, 1008.1,   77.6, -999.0
05-04-2022, 00:03:53,    279,    2.7,    9.3,   0.00,   0.00, 1008.0,   77.6, -999.0
05-04-2022, 00:04:03,    253,    1.9,    9.3,   0.00,   0.00, 1008.0,   77.6, -999.0
05-04-2022, 00:04:13,    256,    1.6,    9.3,   0.00,   0.00, 1008.0,   77.6, -999.0
05-04-2022, 00:04:23,    254,    0.8,    9.3,   0.00,   0.00, 1008.1,   77.6, -999.0
05-04-2022, 00:04:33,    278,    0.6,    9.4,   0.00,   0.00, 1008.1,   77.5, -999.0
05-04-2022, 00:04:43,    277,    0.5,    9.3,   0.00,   0.00, 1008.1,   77.5, -999.0
05-04-2022, 00:04:53,    276,    0.4,    9.3,   0.00,   0.00, 1008.0,   77.6, -999.0
05-04-2022, 00:05:03,    276,    0.4,    9.3,   0.00,   0.00, 1008.0,   77.5, -999.0
05-04-2022, 00:05:13,    276,    0.1,    9.2,   0.00,   0.00, 1008.0,   77.4, -999.0
05-04-2022, 00:05:23,    280,    1.1,    9.3,   0.00,   0.00, 1008.1,   77.6, -999.0
05-04-2022, 00:05:33,    262,    2.8,    9.3,   0.00,   0.00, 1008.0,   77.5, -999.0
05-04-2022, 00:05:42,    254,    2.5,    9.4,   0.00,   0.00, 1008.0,   77.7, -999.0
05-04-2022, 00:05:52,    249,    0.9,    9.3,   0.00,   0.00, 1008.0,   77.7, -999.0
05-04-2022, 00:06:03,    247,    0.4,    9.3,   0.00,   0.00, 1008.0,   77.5, -999.0
05-04-2022, 00:06:12,    247,    0.5,    9.3,   0.00,   0.00, 1008.0,   77.5, -999.0
05-04-2022, 00:06:22,    267,    0.2,    9.2,   0.00,   0.00, 1007.9,   77.4, -999.0
05-04-2022, 00:06:32,    267,    0.2,    9.3,   0.00,   0.00, 1008.0,   77.5, -999.0
05-04-2022, 00:06:42,    268,    0.1,    9.3,   0.00,   0.00, 1008.0,   77.5, -999.0
05-04-2022, 00:06:52,    267,    0.0,    9.2,   0.00,   0.00, 1007.9,   77.4, -999.0
05-04-2022, 00:07:02,    267,    0.0,    9.2,   0.00,   0.00, 1007.9,   77.4, -999.0
05-04-2022, 00:07:12,    268,    0.0,    9.2,   0.00,   0.00, 1007.9,   77.3, -999.0
05-04-2022, 00:07:22,    267,    0.0,    9.2,   0.00,   0.00, 1007.9,   77.3, -999.0
05-04-2022, 00:07:32,    254,    0.3,    9.3,   0.00,   0.00, 1008.0,   77.5, -999.0
05-04-2022, 00:07:42,    236,    0.9,    9.3,   0.00,   0.00, 1008.0,   77.7, -999.0
05-04-2022, 00:07:52,    242,    0.4,    9.4,   0.00,   0.00, 1008.0,   77.7, -999.0
05-04-2022, 00:08:02,    289,    0.5,    9.3,   0.00,   0.00, 1008.0,   77.6, -999.0
05-04-2022, 00:08:12,    288,    0.0,    9.2,   0.00,   0.00, 1007.9,   77.3, -999.0
05-04-2022, 00:08:22,    288,    0.0,    9.2,   0.00,   0.00, 1007.9,   77.3, -999.0
05-04-2022, 00:08:32,    214,    0.4,    9.3,   0.00,   0.00, 1008.1,   77.7, -999.0
05-04-2022, 00:08:42,    249,    0.2,    9.3,   0.00,   0.00, 1008.0,   77.4, -999.0
05-04-2022, 00:08:52,    250,    0.5,    9.3,   0.00,   0.00, 1008.0,   77.7, -999.0
05-04-2022, 00:09:01,    253,    0.6,    9.3,   0.00,   0.00, 1008.1,   77.7, -999.0
05-04-2022, 00:09:12,    295,    0.3,    9.3,   0.00,   0.00, 1008.0,   77.5, -999.0
05-04-2022, 00:09:21,    294,    0.0,    9.2,   0.00,   0.00, 1007.9,   77.3, -999.0
05-04-2022, 00:09:31,    293,    0.0,    9.3,   0.00,   0.00, 1008.0,   77.3, -999.0
05-04-2022, 00:09:42,    293,    0.0,    9.3,   0.00,   0.00, 1008.0,   77.3, -999.0
05-04-2022, 00:09:51,    295,    0.2,    9.3,   0.00,   0.00, 1008.0,   77.5, -999.0
05-04-2022, 00:10:01,    294,    0.0,    9.3,   0.00,   0.00, 1007.9,   77.5, -999.0
05-04-2022, 00:10:11,    279,    0.0,    9.3,   0.00,   0.00, 1007.9,   77.3, -999.0
05-04-2022, 00:10:21,    257,    1.4,    9.3,   0.00,   0.00, 1008.1,   77.7, -999.0
05-04-2022, 00:10:31,    254,    0.6,    9.2,   0.00,   0.00, 1008.1,   77.6, -999.0
05-04-2022, 00:10:41,    255,    0.2,    9.2,   0.00,   0.00, 1008.0,   77.5, -999.0
05-04-2022, 00:10:51,    254,    0.0,    9.2,   0.00,   0.00, 1008.0,   77.4, -999.0
05-04-2022, 00:11:01,    249,    0.8,    9.2,   0.00,   0.00, 1008.0,   77.5, -999.0
05-04-2022, 00:11:11,    245,    2.1,    9.3,   0.00,   0.00, 1008.1,   77.6, -999.0
05-04-2022, 00:11:21,    239,    0.5,    9.3,   0.00,   0.00, 1008.0,   77.5, -999.0
05-04-2022, 00:11:31,    280,    0.4,    9.2,   0.00,   0.00, 1008.0,   77.5, -999.0
05-04-2022, 00:11:41,    280,    1.0,    9.3,   0.00,   0.00, 1008.1,   77.6, -999.0
05-04-2022, 00:11:51,    268,    1.7,    9.3,   0.00,   0.00, 1008.0,   77.7, -999.0
05-04-2022, 00:12:01,    265,    0.9,    9.3,   0.00,   0.00, 1008.1,   77.7, -999.0
05-04-2022, 00:12:11,    265,    0.5,    9.3,   0.00,   0.00, 1008.1,   77.6, -999.0
05-04-2022, 00:12:21,    281,    0.0,    9.2,   0.00,   0.00, 1008.0,   77.3, -999.0
05-04-2022, 00:12:31,    312,    0.3,    9.2,   0.00,   0.00, 1008.0,   77.6, -999.0
05-04-2022, 00:12:40,    310,    0.0,    9.2,   0.00,   0.00, 1007.9,   77.4, -999.0
05-04-2022, 00:12:51,    310,    0.0,    9.2,   0.00,   0.00, 1008.0,   77.5, -999.0
05-04-2022, 00:13:00,    311,    0.0,    9.2,   0.00,   0.00, 1007.9,   77.3, -999.0
05-04-2022, 00:13:10,    310,    0.0,    9.2,   0.00,   0.00, 1008.0,   77.3, -999.0
05-04-2022, 00:13:20,    287,    0.5,    9.2,   0.00,   0.00, 1008.0,   77.6, -999.0
05-04-2022, 00:13:30,    257,    1.5,    9.3,   0.00,   0.00, 1008.1,   77.7, -999.0
05-04-2022, 00:13:40,    260,    0.7,    9.3,   0.00,   0.00, 1008.0,   77.8, -999.0
05-04-2022, 00:13:50,    260,    1.0,    9.3,   0.00,   0.00, 1008.1,   77.8, -999.0
05-04-2022, 00:14:00,    260,    0.4,    9.3,   0.00,   0.00, 1008.1,   77.7, -999.0
05-04-2022, 00:14:10,    260,    0.1,    9.2,   0.00,   0.00, 1008.0,   77.6, -999.0
05-04-2022, 00:14:20,    259,    0.0,    9.1,   0.00,   0.00, 1007.9,   77.3, -999.0
05-04-2022, 00:14:30,    276,    0.2,    9.2,   0.00,   0.00, 1008.0,   77.5, -999.0
05-04-2022, 00:14:40,    276,    0.0,    9.2,   0.00,   0.00, 1008.0,   77.6, -999.0
05-04-2022, 00:14:50,    276,    0.0,    9.1,   0.00,   0.00, 1007.9,   77.5, -999.0
05-04-2022, 00:15:00,    276,    0.0,    9.2,   0.00,   0.00, 1008.0,   77.5, -999.0
05-04-2022, 00:15:10,    276,    0.0,    9.1,   0.00,   0.00, 1007.9,   77.4, -999.0
05-04-2022, 00:15:20,    275,    0.4,    9.2,   0.00,   0.00, 1008.0,   77.7, -999.0
05-04-2022, 00:15:30,    272,    0.7,    9.2,   0.00,   0.00, 1008.1,   77.8, -999.0
05-04-2022, 00:15:40,    269,    1.2,    9.2,   0.00,   0.00, 1008.1,   77.9, -999.0
05-04-2022, 00:15:49,    265,    1.5,    9.2,   0.00,   0.00, 1008.1,   77.8, -999.0
05-04-2022, 00:16:00,    262,    1.2,    9.3,   0.00,   0.00, 1008.1,   77.8, -999.0
05-04-2022, 00:16:10,    258,    0.6,    9.2,   0.00,   0.00, 1008.1,   77.8, -999.0
05-04-2022, 00:16:19,    263,    0.4,    9.3,   0.00,   0.00, 1008.0,   77.7, -999.0
05-04-2022, 00:16:30,    264,    0.0,    9.2,   0.00,   0.00, 1008.0,   77.6, -999.0
05-04-2022, 00:16:39,    276,    1.0,    9.2,   0.00,   0.00, 1008.1,   77.8, -999.0
05-04-2022, 00:16:49,    276,    1.2,    9.2,   0.00,   0.00, 1008.1,   77.8, -999.0
05-04-2022, 00:16:59,    276,    0.3,    9.2,   0.00,   0.00, 1008.0,   77.7, -999.0
05-04-2022, 00:17:09,    238,    0.1,    9.1,   0.00,   0.00, 1008.0,   77.6, -999.0
05-04-2022, 00:17:19,    236,    0.2,    9.2,   0.00,   0.00, 1008.0,   77.7, -999.0
05-04-2022, 00:17:29,    233,    0.2,    9.2,   0.00,   0.00, 1008.1,   77.8, -999.0
05-04-2022, 00:17:39,    234,    0.0,    9.1,   0.00,   0.00, 1008.0,   77.6, -999.0
05-04-2022, 00:17:49,    237,    0.0,    9.2,   0.00,   0.00, 1008.0,   77.6, -999.0
05-04-2022, 00:17:59,    260,    0.8,    9.2,   0.00,   0.00, 1008.0,   77.9, -999.0
05-04-2022, 00:18:09,    259,    1.1,    9.2,   0.00,   0.00, 1008.1,   77.9, -999.0
05-04-2022, 00:18:19,    279,    2.0,    9.2,   0.00,   0.00, 1008.1,   77.9, -999.0
05-04-2022, 00:18:29,    267,    1.9,    9.2,   0.00,   0.00, 1008.1,   77.9, -999.0
05-04-2022, 00:18:39,    262,    1.4,    9.2,   0.00,   0.00, 1008.1,   77.9, -999.0
05-04-2022, 00:18:49,    263,    0.6,    9.2,   0.00,   0.00, 1008.0,   77.8, -999.0
05-04-2022, 00:18:59,    280,    0.1,    9.0,   0.00,   0.00, 1008.0,   77.7, -999.0
05-04-2022, 00:19:09,    279,    0.3,    9.0,   0.00,   0.00, 1008.0,   77.7, -999.0
05-04-2022, 00:19:19,    272,    1.0,    9.2,   0.00,   0.00, 1008.1,   77.9, -999.0
05-04-2022, 00:19:28,    267,    1.6,    9.2,   0.00,   0.00, 1008.1,   78.0, -999.0
05-04-2022, 00:19:39,    265,    0.8,    9.2,   0.00,   0.00, 1008.1,   77.8, -999.0
05-04-2022, 00:19:48,    251,    0.9,    9.2,   0.00,   0.00, 1008.1,   77.9, -999.0
05-04-2022, 00:19:58,    235,    0.7,    9.2,   0.00,   0.00, 1008.0,   77.8, -999.0
05-04-2022, 00:20:08,    266,    0.7,    9.1,   0.00,   0.00, 1008.1,   77.8, -999.0
05-04-2022, 00:20:18,    295,    1.1,    9.2,   0.00,   0.00, 1008.1,   77.8, -999.0
05-04-2022, 00:20:28,    289,    0.5,    9.2,   0.00,   0.00, 1008.0,   77.9, -999.0
05-04-2022, 00:20:38,    288,    0.4,    9.2,   0.00,   0.00, 1008.1,   77.8, -999.0
05-04-2022, 00:20:48,    288,    0.0,    9.1,   0.00,   0.00, 1008.0,   77.7, -999.0
05-04-2022, 00:20:58,    287,    0.0,    9.1,   0.00,   0.00, 1008.0,   77.6, -999.0
05-04-2022, 00:21:08,    289,    1.1,    9.2,   0.00,   0.00, 1008.1,   78.1, -999.0
05-04-2022, 00:21:18,    294,    1.8,    9.2,   0.00,   0.00, 1008.1,   78.0, -999.0
05-04-2022, 00:21:28,    293,    1.0,    9.2,   0.00,   0.00, 1008.1,   78.0, -999.0
05-04-2022, 00:21:38,    295,    0.4,    9.2,   0.00,   0.00, 1008.1,   78.1, -999.0
05-04-2022, 00:21:48,    259,    1.1,    9.1,   0.00,   0.00, 1008.1,   78.1, -999.0
05-04-2022, 00:21:58,    260,    1.1,    9.2,   0.00,   0.00, 1008.1,   78.2, -999.0
05-04-2022, 00:22:08,    217,    0.6,    9.2,   0.00,   0.00, 1008.1,   78.1, -999.0
05-04-2022, 00:22:18,    236,    0.2,    9.1,   0.00,   0.00, 1008.0,   77.9, -999.0
05-04-2022, 00:22:28,    248,    1.0,    9.2,   0.00,   0.00, 1008.1,   78.0, -999.0
05-04-2022, 00:22:37,    208,    0.8,    9.2,   0.00,   0.00, 1008.1,   78.0, -999.0
05-04-2022, 00:22:48,    208,    0.1,    9.2,   0.00,   0.00, 1008.0,   78.0, -999.0
05-04-2022, 00:22:58,    208,    0.0,    9.1,   0.00,   0.00, 1007.9,   77.5, -999.0
05-04-2022, 00:23:07,    258,    0.0,    9.1,   0.00,   0.00, 1007.9,   77.6, -999.0
05-04-2022, 00:23:18,    258,    1.5,    9.1,   0.00,   0.00, 1008.1,   78.0, -999.0
05-04-2022, 00:23:27,    256,    1.0,    9.2,   0.00,   0.00, 1008.0,   78.0, -999.0
05-04-2022, 00:23:37,    256,    0.4,    9.1,   0.00,   0.00, 1008.0,   77.7, -999.0
05-04-2022, 00:23:47,    230,    1.3,    9.1,   0.00,   0.00, 1008.1,   78.0, -999.0
05-04-2022, 00:23:57,    231,    0.6,    9.2,   0.00,   0.00, 1008.1,   78.0, -999.0
05-04-2022, 00:24:07,    199,    0.8,    9.2,   0.00,   0.00, 1008.1,   78.0, -999.0
05-04-2022, 00:24:17,    248,    0.7,    9.2,   0.00,   0.00, 1008.1,   78.2, -999.0
05-04-2022, 00:24:27,    247,    0.3,    9.2,   0.00,   0.00, 1008.1,   78.0, -999.0
05-04-2022, 00:24:37,    248,    0.2,    9.1,   0.00,   0.00, 1008.0,   77.8, -999.0
05-04-2022, 00:24:47,    257,    1.3,    9.2,   0.00,   0.00, 1008.1,   77.9, -999.0
05-04-2022, 00:24:57,    283,    2.0,    9.2,   0.00,   0.00, 1008.1,   78.0, -999.0
05-04-2022, 00:25:07,    288,    0.8,    9.2,   0.00,   0.00, 1008.1,   78.0, -999.0
05-04-2022, 00:25:17,    295,    0.5,    9.1,   0.00,   0.00, 1008.0,   78.0, -999.0
05-04-2022, 00:25:27,    295,    0.2,    9.1,   0.00,   0.00, 1008.0,   77.9, -999.0
05-04-2022, 00:25:37,    282,    0.0,    9.1,   0.00,   0.00, 1007.9,   77.7, -999.0
05-04-2022, 00:25:47,    276,    0.7,    9.2,   0.00,   0.00, 1008.1,   78.0, -999.0
05-04-2022, 00:25:57,    241,    1.7,    9.1,   0.00,   0.00, 1008.1,   78.1, -999.0
05-04-2022, 00:26:07,    218,    1.9,    9.2,   0.00,   0.00, 1008.1,   78.0, -999.0
05-04-2022, 00:26:16,    274,    1.1,    9.2,   0.00,   0.00, 1008.1,   78.2, -999.0
05-04-2022, 00:26:27,    274,    0.6,    9.2,   0.00,   0.00, 1008.0,   78.0, -999.0
05-04-2022, 00:26:36,    274,    0.0,    9.1,   0.00,   0.00, 1007.9,   77.7, -999.0
05-04-2022, 00:26:46,    274,    0.0,    9.1,   0.00,   0.00, 1007.9,   77.7, -999.0
05-04-2022, 00:26:56,    296,    0.0,    9.1,   0.00,   0.00, 1007.9,   77.7, -999.0
05-04-2022, 00:27:06,    269,    0.5,    9.2,   0.00,   0.00, 1008.0,   77.9, -999.0
05-04-2022, 00:27:16,    269,    0.1,    9.1,   0.00,   0.00, 1007.9,   77.8, -999.0
05-04-2022, 00:27:26,    269,    0.0,    9.1,   0.00,   0.00, 1008.0,   77.8, -999.0
05-04-2022, 00:27:36,    269,    0.0,    9.1,   0.00,   0.00, 1007.9,   77.6, -999.0
05-04-2022, 00:27:46,    266,    0.7,    9.1,   0.00,   0.00, 1008.1,   78.1, -999.0
05-04-2022, 00:27:56,    248,    0.7,    9.2,   0.00,   0.00, 1008.1,   78.1, -999.0
05-04-2022, 00:28:06,    283,    1.1,    9.1,   0.00,   0.00, 1008.1,   78.2, -999.0
05-04-2022, 00:28:16,    261,    1.6,    9.2,   0.00,   0.00, 1008.1,   78.1, -999.0
05-04-2022, 00:28:26,    260,    0.5,    9.2,   0.00,   0.00, 1008.1,   78.1, -999.0
05-04-2022, 00:28:36,    260,    0.3,    9.2,   0.00,   0.00, 1008.0,   78.0, -999.0
05-04-2022, 00:28:46,    285,    1.0,    9.2,   0.00,   0.00, 1008.0,   78.1, -999.0
05-04-2022, 00:28:56,    263,    1.1,    9.2,   0.00,   0.00, 1008.0,   78.0, -999.0
05-04-2022, 00:29:06,    269,    2.0,    9.2,   0.00,   0.00, 1008.1,   77.9, -999.0
05-04-2022, 00:29:16,    254,    0.9,    9.2,   0.00,   0.00, 1008.1,   77.9, -999.0
05-04-2022, 00:29:26,    244,    0.9,    9.3,   0.00,   0.00, 1008.0,   77.9, -999.0
05-04-2022, 00:29:36,    243,    0.3,    9.3,   0.00,   0.00, 1008.1,   78.0, -999.0
05-04-2022, 00:29:46,    241,    0.0,    9.2,   0.00,   0.00, 1007.9,   77.6, -999.0
05-04-2022, 00:29:55,    244,    0.1,    9.1,   0.00,   0.00, 1008.0,   77.8, -999.0
05-04-2022, 00:30:06,    279,    0.2,    9.2,   0.00,   0.00, 1008.1,   77.8, -999.0
05-04-2022, 00:30:15,    277,    0.1,    9.1,   0.00,   0.00, 1008.0,   77.6, -999.0
05-04-2022, 00:30:25,    277,    0.0,    9.1,   0.00,   0.00, 1007.9,   77.6, -999.0
05-04-2022, 00:30:35,    230,    0.9,    9.2,   0.00,   0.00, 1008.1,   77.9, -999.0
05-04-2022, 00:30:45,    247,    1.7,    9.2,   0.00,   0.00, 1008.1,   78.0, -999.0
05-04-2022, 00:30:55,    273,    0.4,    9.2,   0.00,   0.00, 1008.0,   77.8, -999.0
05-04-2022, 00:31:05,    286,    0.9,    9.1,   0.00,   0.00, 1008.0,   77.8, -999.0
05-04-2022, 00:31:15,    281,    1.1,    9.2,   0.00,   0.00, 1008.1,   77.8, -999.0
05-04-2022, 00:31:25,    281,    0.2,    9.1,   0.00,   0.00, 1008.0,   77.9, -999.0
05-04-2022, 00:31:35,    281,    0.0,    9.1,   0.00,   0.00, 1007.9,   77.5, -999.0
05-04-2022, 00:31:45,    281,    0.0,    9.1,   0.00,   0.00, 1007.9,   77.5, -999.0
05-04-2022, 00:31:55,    280,    0.0,    9.0,   0.00,   0.00, 1007.9,   77.5, -999.0
05-04-2022, 00:32:05,    245,    0.3,    9.1,   0.00,   0.00, 1008.0,   77.7, -999.0
05-04-2022, 00:32:15,    245,    1.6,    9.2,   0.00,   0.00, 1008.1,   77.9, -999.0
05-04-2022, 00:32:25,    249,    0.2,    9.1,   0.00,   0.00, 1008.0,   77.8, -999.0
05-04-2022, 00:32:35,    313,    0.0,    9.1,   0.00,   0.00, 1008.0,   77.7, -999.0
05-04-2022, 00:32:45,    213,    0.3,    9.1,   0.00,   0.00, 1008.1,   78.0, -999.0
05-04-2022, 00:32:55,    219,    0.1,    9.2,   0.00,   0.00, 1008.0,   77.7, -999.0
05-04-2022, 00:33:04,    292,    0.3,    9.1,   0.00,   0.00, 1008.0,   77.8, -999.0
05-04-2022, 00:33:15,    280,    0.0,    9.1,   0.00,   0.00, 1008.0,   77.7, -999.0
05-04-2022, 00:33:24,    280,    0.0,    9.1,   0.00,   0.00, 1008.0,   77.6, -999.0
05-04-2022, 00:33:34,    268,    0.3,    9.1,   0.00,   0.00, 1008.0,   77.8, -999.0
05-04-2022, 00:33:45,    263,    0.4,    9.2,   0.00,   0.00, 1008.1,   77.9, -999.0
05-04-2022, 00:33:54,    259,    0.7,    9.2,   0.00,   0.00, 1008.1,   78.0, -999.0
05-04-2022, 00:34:04,    242,    0.1,    9.2,   0.00,   0.00, 1008.1,   77.9, -999.0
05-04-2022, 00:34:14,    243,    0.1,    9.1,   0.00,   0.00, 1008.0,   77.8, -999.0
05-04-2022, 00:34:24,    243,    0.0,    9.1,   0.00,   0.00, 1008.0,   77.6, -999.0
05-04-2022, 00:34:34,    251,    0.7,    9.1,   0.00,   0.00, 1008.0,   77.9, -999.0
05-04-2022, 00:34:44,    244,    0.4,    9.1,   0.00,   0.00, 1008.0,   77.9, -999.0
05-04-2022, 00:34:54,    260,    0.7,    9.1,   0.00,   0.00, 1008.0,   78.0, -999.0
05-04-2022, 00:35:04,    253,    0.7,    9.2,   0.00,   0.00, 1008.1,   78.0, -999.0
05-04-2022, 00:35:14,    269,    1.2,    9.2,   0.00,   0.00, 1008.0,   78.0, -999.0
05-04-2022, 00:35:24,    269,    0.6,    9.2,   0.00,   0.00, 1008.1,   78.1, -999.0
05-04-2022, 00:35:34,    271,    0.7,    9.1,   0.00,   0.00, 1008.1,   77.9, -999.0
05-04-2022, 00:35:44,    275,    1.0,    9.1,   0.00,   0.00, 1008.1,   78.0, -999.0
05-04-2022, 00:35:54,    266,    0.4,    9.2,   0.00,   0.00, 1008.0,   77.9, -999.0
05-04-2022, 00:36:04,    266,    0.0,    9.2,   0.00,   0.00, 1008.0,   77.7, -999.0
05-04-2022, 00:36:14,    280,    0.4,    9.1,   0.00,   0.00, 1008.0,   77.7, -999.0
05-04-2022, 00:36:24,    238,    1.6,    9.2,   0.00,   0.00, 1008.0,   78.0, -999.0
05-04-2022, 00:36:34,    266,    1.6,    9.2,   0.00,   0.00, 1008.1,   77.9, -999.0
05-04-2022, 00:36:43,    286,    0.9,    9.2,   0.00,   0.00, 1008.0,   77.9, -999.0
05-04-2022, 00:36:54,    219,    1.0,    9.2,   0.00,   0.00, 1008.0,   77.8, -999.0
05-04-2022, 00:37:03,    220,    0.2,    9.1,   0.00,   0.00, 1008.0,   77.7, -999.0
05-04-2022, 00:37:13,    222,    0.2,    9.1,   0.00,   0.00, 1008.0,   77.9, -999.0
05-04-2022, 00:37:23,    222,    0.1,    9.1,   0.00,   0.00, 1007.9,   77.6, -999.0
05-04-2022, 00:37:33,    222,    0.0,    9.1,   0.00,   0.00, 1007.9,   77.5, -999.0
05-04-2022, 00:37:43,    303,    0.0,    9.1,   0.00,   0.00, 1007.9,   77.6, -999.0
05-04-2022, 00:37:53,    298,    0.1,    9.1,   0.00,   0.00, 1008.0,   77.7, -999.0
05-04-2022, 00:38:03,    298,    0.1,    9.1,   0.00,   0.00, 1007.9,   77.7, -999.0
05-04-2022, 00:38:13,    274,    0.0,    9.1,   0.00,   0.00, 1007.9,   77.5, -999.0
05-04-2022, 00:38:23,    233,    0.2,    9.1,   0.00,   0.00, 1008.0,   77.6, -999.0
05-04-2022, 00:38:33,    258,    2.1,    9.2,   0.00,   0.00, 1008.1,   78.0, -999.0
05-04-2022, 00:38:43,    275,    0.7,    9.1,   0.00,   0.00, 1008.0,   78.0, -999.0
05-04-2022, 00:38:53,    257,    1.8,    9.1,   0.00,   0.00, 1008.1,   77.9, -999.0
05-04-2022, 00:39:03,    270,    0.9,    9.2,   0.00,   0.00, 1008.1,   77.8, -999.0
05-04-2022, 00:39:13,    262,    1.3,    9.2,   0.00,   0.00, 1008.0,   77.8, -999.0
05-04-2022, 00:39:23,    296,    0.6,    9.1,   0.00,   0.00, 1008.0,   77.9, -999.0
05-04-2022, 00:39:33,    294,    0.5,    9.2,   0.00,   0.00, 1008.0,   77.7, -999.0
05-04-2022, 00:39:43,    293,    0.1,    9.1,   0.00,   0.00, 1007.9,   77.7, -999.0
05-04-2022, 00:39:52,    294,    0.0,    9.1,   0.00,   0.00, 1007.9,   77.5, -999.0
05-04-2022, 00:40:03,    293,    0.0,    9.1,   0.00,   0.00, 1007.9,   77.5, -999.0
05-04-2022, 00:40:12,    293,    0.0,    9.1,   0.00,   0.00, 1007.8,   77.4, -999.0
05-04-2022, 00:40:22,    293,    0.0,    9.0,   0.00,   0.00, 1007.9,   77.5, -999.0
05-04-2022, 00:40:33,    294,    0.0,    9.1,   0.00,   0.00, 1007.9,   77.5, -999.0
05-04-2022, 00:40:42,    293,    0.0,    9.1,   0.00,   0.00, 1007.9,   77.4, -999.0
05-04-2022, 00:40:52,    293,    0.0,    9.1,   0.00,   0.00, 1007.9,   77.4, -999.0
05-04-2022, 00:41:02,    294,    0.0,    9.0,   0.00,   0.00, 1007.9,   77.4, -999.0
05-04-2022, 00:41:12,    289,    0.1,    9.1,   0.00,   0.00, 1007.9,   77.7, -999.0
05-04-2022, 00:41:22,    287,    0.0,    9.1,   0.00,   0.00, 1007.9,   77.5, -999.0
05-04-2022, 00:41:32,    278,    1.2,    9.1,   0.00,   0.00, 1008.0,   77.8, -999.0
05-04-2022, 00:41:42,    303,    0.4,    9.2,   0.00,   0.00, 1008.0,   77.7, -999.0
05-04-2022, 00:41:52,    276,    2.8,    9.1,   0.00,   0.00, 1008.0,   77.9, -999.0
05-04-2022, 00:42:02,    276,    2.6,    9.1,   0.00,   0.00, 1008.0,   77.9, -999.0
05-04-2022, 00:42:12,    274,    0.7,    9.1,   0.00,   0.00, 1008.0,   77.8, -999.0
05-04-2022, 00:42:22,    273,    2.1,    9.1,   0.00,   0.00, 1008.0,   77.9, -999.0
05-04-2022, 00:42:32,    273,    1.5,    9.1,   0.00,   0.00, 1008.0,   77.9, -999.0
05-04-2022, 00:42:42,    274,    0.6,    9.1,   0.00,   0.00, 1008.0,   77.8, -999.0
05-04-2022, 00:42:52,    274,    0.0,    9.0,   0.00,   0.00, 1007.8,   77.5, -999.0
05-04-2022, 00:43:02,    243,    0.6,    9.1,   0.00,   0.00, 1007.9,   77.8, -999.0
05-04-2022, 00:43:12,    245,    1.5,    9.1,   0.00,   0.00, 1008.0,   78.0, -999.0
05-04-2022, 00:43:22,    244,    0.6,    9.2,   0.00,   0.00, 1007.9,   78.0, -999.0
05-04-2022, 00:43:31,    238,    0.4,    9.2,   0.00,   0.00, 1008.0,   78.0, -999.0
05-04-2022, 00:43:42,    240,    0.1,    9.0,   0.00,   0.00, 1007.9,   77.7, -999.0
05-04-2022, 00:43:51,    226,    0.6,    9.2,   0.00,   0.00, 1008.0,   78.1, -999.0
05-04-2022, 00:44:01,    226,    0.2,    9.1,   0.00,   0.00, 1007.9,   77.9, -999.0
05-04-2022, 00:44:11,    232,    0.7,    9.2,   0.00,   0.00, 1008.0,   78.0, -999.0
05-04-2022, 00:44:21,    232,    0.8,    9.2,   0.00,   0.00, 1008.0,   77.9, -999.0
05-04-2022, 00:44:31,    232,    0.0,    9.1,   0.00,   0.00, 1007.8,   77.6, -999.0
05-04-2022, 00:44:41,    238,    0.3,    9.1,   0.00,   0.00, 1007.9,   77.9, -999.0
05-04-2022, 00:44:51,    262,    0.3,    9.2,   0.00,   0.00, 1008.0,   77.9, -999.0
05-04-2022, 00:45:01,    260,    0.2,    9.1,   0.00,   0.00, 1007.9,   77.7, -999.0
05-04-2022, 00:45:11,    256,    0.3,    9.1,   0.00,   0.00, 1008.0,   77.9, -999.0
05-04-2022, 00:45:21,    270,    0.6,    9.1,   0.00,   0.00, 1008.0,   77.9, -999.0
05-04-2022, 00:45:31,    280,    1.1,    9.1,   0.00,   0.00, 1008.0,   77.9, -999.0
05-04-2022, 00:45:41,    274,    1.4,    9.2,   0.00,   0.00, 1008.0,   77.8, -999.0
05-04-2022, 00:45:51,    259,    1.7,    9.2,   0.00,   0.00, 1008.0,   78.0, -999.0
05-04-2022, 00:46:01,    257,    0.9,    9.2,   0.00,   0.00, 1008.0,   77.8, -999.0
05-04-2022, 00:46:11,    256,    0.5,    9.1,   0.00,   0.00, 1008.0,   77.8, -999.0
05-04-2022, 00:46:21,    256,    0.0,    9.1,   0.00,   0.00, 1007.9,   77.6, -999.0
05-04-2022, 00:46:31,    256,    0.0,    9.1,   0.00,   0.00, 1007.8,   77.4, -999.0
05-04-2022, 00:46:41,    256,    0.0,    9.1,   0.00,   0.00, 1007.8,   77.6, -999.0